Regional Weather Roundup
Issued by NWS Upton, NY

Current Version | Previous Version | Graphics & Text | Print | Product List | Glossary Off
Versions: 1 2 3 4 5 6 7 8 9 10 11 12 13 14 15 16 17 18 19 20 21 22 23 24 25 26 27 28 29 30 31 32 33 34 35 36 37 38 39 40 41 42 43 44 45 46 47 48 49 50

070
ASUS41 KOKX 241208
RWROKX

REGIONAL WEATHER ROUNDUP
NATIONAL WEATHER SERVICE NEW YORK NY
700 AM EST FRI FEB 24 2017

NOTE: "FAIR" INDICATES FEW OR NO CLOUDS BELOW 12,000 FEET WITH NO
SIGNIFICANT WEATHER AND/OR OBSTRUCTIONS TO VISIBILITY.

NYZ071-072-176-178-NJZ106-104-241300-
NEW YORK CITY METRO AREA

CITY           SKY/WX    TMP DP  RH WIND       PRES   REMARKS
Central Park   CLOUDY    59  52  77 CALM      29.95R
Wall St Helipt NOT AVBL
LaGuardia APRT CLOUDY    53  48  83 S9        29.92S
Kennedy INTL   MOCLDY    45  45 100 S6        29.96R
Breezy Point     N/A     45 N/A N/A S6          N/A
Newark/Liberty PTCLDY    53  50  89 CALM      29.93R
Teterboro      PTCLDY    51  48  89 CALM      29.92S
$$

NYZ177-179-078>081-241300-
LONG ISLAND NEW YORK

CITY           SKY/WX    TMP DP  RH WIND       PRES   REMARKS
Jones Beach      N/A     45 N/A N/A S8          N/A
Matinecock PT    N/A     45 N/A N/A CALM        N/A
Farmingdale    CLEAR     45  44  97 S6        29.95S
MacArthur/ISP  MOCLDY    47  47 100 SW8       29.96R
Shirley        PTCLDY    46  46 100 S8        29.97S
Westhampton    MOCLDY    45  43  93 S3        29.99R FOG
Southampton    NOT AVBL
Bridgehampton  NOT AVBL
East Hampton   CLOUDY    46  45  97 S5        29.97S
Montauk          N/A     48  48 100 S7        29.98S
$$

NYZ052-065-067-241300-
HUDSON VALLEY

CITY           SKY/WX    TMP DP  RH WIND       PRES   REMARKS
White Plains   PTCLDY    49  47  93 S3        29.92S
Newburgh       NOT AVBL
Montgomery     FOG       45  44  97 CALM      29.89S VSB<1/4
Poughkeepsie   CLOUDY    44  44 100 CALM      29.90R
Albany         LGT RAIN  44  41  89 CALM      29.89F
$$

NJZ001-105-106-008-010-013-015-019>022-104-241300-
NEW JERSEY

CITY           SKY/WX    TMP DP  RH WIND       PRES   REMARKS
Newark/Liberty PTCLDY    53  50  89 CALM      29.93R
Teterboro      PTCLDY    51  48  89 CALM      29.92S
Caldwell       PTCLDY    46  44  93 CALM      29.93S FOG
Somerville     PTCLDY    41  39  93 CALM      29.91S
Linden         NOT AVBL
Sussex         CLOUDY    44  44 100 CALM      29.90S
Andover          N/A     47  46  97 CALM      29.90S
Trenton        PTCLDY    49  49 100 S5        29.93S
Millville      CLEAR     51  51 100 CALM      29.94S
Atlantic City  CLEAR     53  49  86 S7        29.95F
Wrightstown    CLEAR     51  50  95 CALM      29.92R
Toms River     CLEAR     54  51  90 SW7       29.95S
Belmar         CLEAR     54  51  90 S9        29.95F
$$

PAZ047>061-062-071-241300-
EASTERN PENNSYLVANIA

CITY           SKY/WX    TMP DP  RH WIND       PRES   REMARKS
Philadelphia   PTCLDY    53  50  89 S6        29.94S
Allentown      CLEAR     48  45  89 CALM      29.90S
Scranton       CLOUDY    55  52  89 CALM      29.85F
$$

CTZ002-004>006-009-010-012-RIZ004-006-007-MAZ004-011-015-241300-
SOUTHERN NEW ENGLAND
 IN CT

CITY           SKY/WX    TMP DP  RH WIND       PRES   REMARKS
Bradley INTL   FOG       43  42  97 N3        29.94R VSB 1/4
Hartford       PTCLDY    49  47  93 W3        29.93S
Danbury        CLOUDY    42  41  96 CALM      29.94R FOG
Wtrbury/Oxford MOCLDY    50  45  81 SW6       29.95S
Bridgeport     CLOUDY    42  39  89 E3        29.94S FOG
Meriden        PTCLDY    43  40  89 CALM      29.94S FOG
New Haven      PTCLDY    39  38  96 CALM      29.95S FOG
Chester        PTSUNNY   50  50 100 S5        29.95S
Groton         MOCLDY    41  39  93 CALM      29.97R
Wilimantic     PTCLDY    41  39  93 CALM      29.96R FOG

 IN RI

CITY           SKY/WX    TMP DP  RH WIND       PRES   REMARKS
Providence     PTCLDY    49  47  93 CALM      29.95R
Block Island   PTCLDY    47  47 100 SW13      29.98S
Westerly       MOCLDY    48  44  86 SW6       29.98R
 IN MA

CITY           SKY/WX    TMP DP  RH WIND       PRES   REMARKS
Boston         CLOUDY    46  45  96 SE5       29.93F
Worcester      PTCLDY    51  47  86 W12       29.92S
Westfield      FOG       39  39 100 CALM      29.92F VSB 1/8
Provincetown   CLOUDY    45  45 100 SW8       29.96F
Nantucket      CLEAR     45  44  97 SW7       29.99S
$$

ANZ330-335-338-340-345-350-353-355-241300-
COASTAL MARINE OBSERVATIONS


STATION/POSITION TIME  SKY/WX   TEMP    WIND        PRES    VSBY  WAVE
                                AIR SEA DIR/SP/G                  HT/PER
                 (UTC)          (F)     (DEG/KT/KT) (MB)    (MI)  (FT/S)
NY HARB ENTRANCE 1050            47 43  190/ 12/ 14 1013.7          4/11
20 S FIRE ISLAND 1150            47 43  190/ 10/ 10 1014.1          4/12
GREAT SOUTH BAY  NOT AVBL
23 SSW MONTAUK P 1050            48 43              1015.6          4/11
15 E BARNEGAT LI 1130               43                N/A           4/13
HUDSON CANYON    1050               47              1015.3          4/12
KINGS POINT      1142            50 39              1013.5
EXECUTION ROCKS  NOT AVBL
CENTRAL LI SOUND 1115            44     100/  2/  4   N/A           1
EASTERN LI SOUND NOT AVBL
ROBBINS REEF     1142            49     180/  8/ 10 1013.8
$$


>>>>>>>>>>>>>>>>>>>>>>>>>>>> KEY <<<<<<<<<<<<<<<<<<<<<<<<<<<
>                                                          <
>     SKY/WX - Sky Condition/Present Weather               <
>     TMP    - Temperature in Fahrenheit                   <
>     DP     - Dew Point in Fahrenheit                     <
>     RH     - Relative Humidity in Percent                <
>     WIND   - Direction (from) and Speed in MPH           <
>     PRES   - Mean Sea Level Pressure (inches of Hg)      <
>     WCI    - Wind Chill Index                            <
>     VSB    - VISIBILITY IN MILES                         <
>     HX     - HEAT INDEX                                  <
>     TC     - TEMPERATURE IN CELSIUS                      <
>     VRB    - VARIABLE WIND DIRECTION                     <
>                                                          <
>>>>>>>>>>>>>>>>>>>>>>>>>>>> KEY <<<<<<<<<<<<<<<<<<<<<<<<<<<




USA.gov is the U.S. government's official web portal to all federal, state and local government web resources and services.